6hr Temperature Data

Temp.
(°C)
Wind Chill
(°C)
Dew Point
(°C)
Solar Hours
(hh:mm)
Solar Radiation
(w/m2)
Min
13.4 12.7 9.7 00:00 0.0
Max
14.1 14.2 10.5 00:00 34.0
Range
0.7 1.5 0.8 n/a 34
Mode
13.8 12.9 10.4 00:00 4.0
Median
13.8 13.1 10.2 00:00 4.0
Mean
13.8 13.2 10.1 n/a 9.9
Std. Dev
0.7 0.8 0.6 n/a 8.7
Temp.
(°C)
Wind Chill
(°C)
Dew Point
(°C)
Solar Hours
(hh:mm)
Solar Radiation
(w/m2)
20/11 11:31 14.0 12.9 9.8 00:00 22.0
20/11 11:30 13.9 12.8 9.7 00:00 26.0
20/11 11:29 13.9 12.8 9.7 00:00 28.0
20/11 11:28 13.9 12.8 9.7 00:00 28.0
20/11 11:27 13.9 12.8 9.9 00:00 26.0
20/11 11:26 13.9 12.8 9.9 00:00 22.0
20/11 11:25 13.9 12.8 9.9 00:00 20.0
20/11 11:24 13.9 12.8 9.9 00:00 20.0
20/11 11:23 13.9 12.8 9.9 00:00 20.0
20/11 11:22 13.9 12.8 9.9 00:00 22.0
20/11 11:21 13.9 12.8 9.7 00:00 22.0
20/11 11:20 13.9 12.8 9.7 00:00 26.0
20/11 11:19 13.9 12.8 9.7 00:00 30.0
20/11 11:18 13.9 12.9 9.7 00:00 32.0
20/11 11:17 13.9 12.9 9.7 00:00 32.0
20/11 11:16 13.9 12.9 9.7 00:00 30.0
20/11 11:15 13.9 13 9.7 00:00 30.0
20/11 11:14 13.9 13 9.7 00:00 32.0
20/11 11:13 13.9 13 9.7 00:00 34.0
20/11 11:12 13.9 13 9.9 00:00 32.0
20/11 11:11 13.8 13 9.8 00:00 34.0
20/11 11:10 13.8 13 9.8 00:00 32.0
20/11 11:09 13.8 13 9.8 00:00 30.0
20/11 11:08 13.8 13 9.8 00:00 30.0
20/11 11:07 13.8 13 9.8 00:00 32.0
20/11 11:06 13.8 13 9.8 00:00 30.0
20/11 11:05 13.8 13 10 00:00 28.0
20/11 11:04 13.8 13 10 00:00 30.0
20/11 11:03 13.8 12.9 10 00:00 32.0
20/11 11:02 13.8 12.8 10 00:00 30.0
20/11 11:01 13.8 12.8 10 00:00 28.0
20/11 11:00 13.8 12.8 10 00:00 22.0
20/11 10:59 13.8 12.8 10 00:00 20.0
20/11 10:58 13.8 12.8 10 00:00 18.0
20/11 10:57 13.8 12.7 10 00:00 20.0
20/11 10:56 13.8 12.7 9.8 00:00 18.0
20/11 10:55 13.8 12.7 9.8 00:00 18.0
20/11 10:54 13.9 12.9 9.9 00:00 18.0
20/11 10:53 13.9 12.9 9.9 00:00 18.0
20/11 10:52 13.9 12.9 9.9 00:00 18.0
20/11 10:51 13.9 12.9 9.9 00:00 18.0
20/11 10:50 13.9 13 9.9 00:00 20.0
20/11 10:49 13.9 13 9.9 00:00 24.0
20/11 10:48 13.9 13 9.9 00:00 24.0
20/11 10:47 13.9 13 9.9 00:00 20.0
20/11 10:46 13.9 13 9.9 00:00 20.0
20/11 10:45 13.9 13 9.9 00:00 20.0
20/11 10:44 13.9 13 9.9 00:00 20.0
20/11 10:43 13.9 13 9.9 00:00 20.0
20/11 10:42 13.9 12.9 9.9 00:00 20.0
20/11 10:41 13.9 12.9 9.9 00:00 20.0
20/11 10:40 13.9 12.9 9.9 00:00 18.0
20/11 10:39 13.9 12.9 9.9 00:00 18.0
20/11 10:38 13.9 12.8 9.9 00:00 18.0
20/11 10:37 13.9 12.8 9.9 00:00 16.0
20/11 10:36 13.9 12.8 9.9 00:00 16.0
20/11 10:35 13.9 12.9 9.9 00:00 18.0
20/11 10:33 13.9 12.9 9.9 00:00 18.0
20/11 10:32 13.9 12.9 9.9 00:00 18.0
20/11 10:29 13.9 12.9 9.9 00:00 14.0
20/11 10:28 13.9 13 9.9 00:00 14.0
20/11 10:27 13.8 12.9 9.8 00:00 14.0
20/11 10:26 13.8 13 9.8 00:00 14.0
20/11 10:25 13.8 12.9 9.8 00:00 12.0
20/11 10:24 13.8 12.8 9.8 00:00 14.0
20/11 10:23 13.8 12.8 9.8 00:00 14.0
20/11 10:22 13.8 12.8 9.8 00:00 14.0
20/11 10:21 13.8 12.8 9.8 00:00 14.0
20/11 10:20 13.8 12.8 9.8 00:00 14.0
20/11 10:19 13.8 12.7 9.8 00:00 14.0
20/11 10:10 13.9 12.8 9.9 00:00 18.0
20/11 10:09 13.9 12.9 9.9 00:00 18.0
20/11 10:07 13.8 12.8 9.8 00:00 20.0
20/11 10:05 13.8 12.8 9.8 00:00 20.0
20/11 10:03 13.9 12.9 9.9 00:00 20.0
20/11 10:00 13.9 13 9.9 00:00 22.0
20/11 09:59 13.9 13 9.9 00:00 22.0
20/11 09:58 13.9 13 9.9 00:00 22.0
20/11 09:57 13.9 13 9.9 00:00 22.0
20/11 09:56 13.9 13 9.9 00:00 22.0
20/11 09:55 13.9 13 9.9 00:00 22.0
20/11 09:54 13.9 13.1 9.9 00:00 22.0
20/11 09:53 13.9 13.1 9.9 00:00 22.0
20/11 09:52 13.9 13.1 9.9 00:00 20.0
20/11 09:51 13.9 13.1 9.9 00:00 20.0
20/11 09:50 13.9 13.1 9.9 00:00 20.0
20/11 09:49 13.9 13.2 9.9 00:00 20.0
20/11 09:48 13.9 13.3 9.9 00:00 20.0
20/11 09:47 13.9 13.3 9.9 00:00 20.0
20/11 09:46 13.9 13.3 9.9 00:00 20.0
20/11 09:45 13.9 13.4 9.9 00:00 20.0
20/11 09:44 13.9 13.4 9.9 00:00 20.0
20/11 09:43 13.9 13.3 9.9 00:00 20.0
20/11 09:42 13.8 13.1 9.8 00:00 18.0
20/11 09:41 13.8 13.2 10 00:00 18.0
20/11 09:40 13.8 13.2 10 00:00 18.0
20/11 09:39 13.8 13.2 10 00:00 16.0
20/11 09:38 13.9 13.3 10.1 00:00 16.0
20/11 09:37 13.9 13.2 10.1 00:00 16.0
20/11 09:36 13.9 13.2 10.1 00:00 16.0
20/11 09:35 13.9 13.2 10.1 00:00 16.0
20/11 09:34 13.9 13.1 10.1 00:00 16.0
20/11 09:33 13.9 13.2 10.1 00:00 16.0
20/11 09:32 13.8 13.1 10 00:00 16.0
20/11 09:31 13.8 13.2 10 00:00 16.0
20/11 09:30 13.9 13.3 10.1 00:00 18.0
20/11 09:29 13.9 13.3 10.1 00:00 18.0
20/11 09:28 13.9 13.2 10.1 00:00 16.0
20/11 09:27 13.9 13.2 10.1 00:00 16.0
20/11 09:26 13.9 13.2 10.1 00:00 16.0
20/11 09:25 13.9 13.2 10.1 00:00 16.0
20/11 09:24 13.8 13.1 10 00:00 16.0
20/11 09:23 13.8 13.1 10 00:00 14.0
20/11 09:22 13.8 13.1 10 00:00 14.0
20/11 09:21 13.8 13.1 10 00:00 14.0
20/11 09:20 13.8 13 10 00:00 14.0
20/11 09:19 13.8 12.9 10 00:00 14.0
20/11 09:18 13.8 12.9 10 00:00 14.0
20/11 09:17 13.8 12.9 10 00:00 14.0
20/11 09:16 13.8 12.9 10 00:00 14.0
20/11 09:15 13.8 12.9 10 00:00 14.0
20/11 09:14 13.8 12.9 10 00:00 14.0
20/11 09:13 13.8 12.9 10 00:00 14.0
20/11 09:12 13.8 12.9 10 00:00 12.0
20/11 09:11 13.8 12.9 10 00:00 12.0
20/11 09:10 13.9 13 10.1 00:00 12.0
20/11 09:09 13.8 12.8 10 00:00 12.0
20/11 09:08 13.8 12.8 10 00:00 12.0
20/11 09:07 13.8 12.9 10 00:00 12.0
20/11 09:06 13.8 13 10 00:00 12.0
20/11 09:05 13.8 12.9 10 00:00 12.0
20/11 09:04 13.8 12.9 10 00:00 12.0
20/11 09:03 13.8 12.9 10 00:00 12.0
20/11 09:02 13.8 12.9 10 00:00 12.0
20/11 09:01 13.8 12.8 10 00:00 12.0
20/11 09:00 13.8 12.9 10 00:00 12.0
20/11 08:59 13.8 12.9 10 00:00 14.0
20/11 08:58 13.8 12.9 10 00:00 14.0
20/11 08:57 13.8 12.9 10 00:00 14.0
20/11 08:56 13.8 12.9 10 00:00 14.0
20/11 08:55 13.8 12.9 10 00:00 14.0
20/11 08:54 13.7 12.8 10.1 00:00 14.0
20/11 08:53 13.7 12.8 10.1 00:00 12.0
20/11 08:52 13.7 12.8 10.1 00:00 12.0
20/11 08:51 13.7 12.8 10.1 00:00 12.0
20/11 08:50 13.7 12.8 10.1 00:00 12.0
20/11 08:49 13.7 12.9 10.1 00:00 12.0
20/11 08:48 13.7 12.9 10.1 00:00 12.0
20/11 08:47 13.7 12.9 10.1 00:00 12.0
20/11 08:46 13.7 12.9 10.1 00:00 12.0
20/11 08:45 13.7 12.9 10.1 00:00 10.0
20/11 08:44 13.7 12.9 10.1 00:00 10.0
20/11 08:43 13.7 12.9 10.1 00:00 10.0
20/11 08:42 13.7 12.9 10.1 00:00 10.0
20/11 08:41 13.7 13 10.1 00:00 10.0
20/11 08:40 13.7 13 10.1 00:00 10.0
20/11 08:39 13.6 12.9 10 00:00 10.0
20/11 08:38 13.6 12.9 10 00:00 8.0
20/11 08:37 13.6 12.8 10.2 00:00 10.0
20/11 08:36 13.6 12.7 10.2 00:00 10.0
20/11 08:35 13.6 12.7 10.2 00:00 10.0
20/11 08:34 13.6 12.7 10.2 00:00 8.0
20/11 08:33 13.6 12.7 10.2 00:00 8.0
20/11 08:32 13.6 12.7 10.2 00:00 8.0
20/11 08:31 13.6 12.7 10.2 00:00 8.0
20/11 08:30 13.6 12.8 10.2 00:00 8.0
20/11 08:29 13.6 12.8 10.2 00:00 8.0
20/11 08:28 13.6 12.9 10.4 00:00 6.0
20/11 08:27 13.6 12.9 10.4 00:00 6.0
20/11 08:26 13.5 12.8 10.3 00:00 6.0
20/11 08:25 13.5 12.9 10.3 00:00 6.0
20/11 08:24 13.5 13 10.5 00:00 6.0
20/11 08:23 13.5 13 10.5 00:00 6.0
20/11 08:22 13.4 12.9 10.4 00:00 6.0
20/11 08:21 13.4 13 10.4 00:00 6.0
20/11 08:20 13.5 13.2 10.5 00:00 4.0
20/11 08:19 13.5 13.2 10.5 00:00 4.0
20/11 08:18 13.5 13.2 10.5 00:00 4.0
20/11 08:17 13.5 13.1 10.5 00:00 4.0
20/11 08:16 13.6 13.3 10.4 00:00 4.0
20/11 08:15 13.6 13.2 10.4 00:00 4.0
20/11 08:14 13.6 13.2 10.4 00:00 4.0
20/11 08:13 13.6 13.2 10.4 00:00 4.0
20/11 08:12 13.6 13.1 10.4 00:00 0.0
20/11 08:11 13.6 13 10.4 00:00 0.0
20/11 08:10 13.6 13 10.2 00:00 0.0
20/11 08:09 13.6 12.9 10.2 00:00 0.0
20/11 08:08 13.7 13 10.3 00:00 0.0
20/11 08:07 13.7 13 10.3 00:00 0.0
20/11 08:06 13.7 13 10.3 00:00 0.0
20/11 08:05 13.7 12.9 10.3 00:00 0.0
20/11 08:04 13.7 12.9 10.3 00:00 0.0
20/11 08:03 13.7 12.9 10.3 00:00 0.0
20/11 08:02 13.7 12.9 10.3 00:00 0.0
20/11 08:01 13.7 12.9 10.3 00:00 0.0
20/11 08:00 13.7 12.9 10.3 00:00 0.0
20/11 07:59 13.7 12.9 10.3 00:00 0.0
20/11 07:58 13.7 12.9 10.3 00:00 0.0
20/11 07:57 13.7 12.9 10.1 00:00 0.0
20/11 07:56 13.8 13 10.2 00:00 0.0
20/11 07:55 13.8 13 10.2 00:00 0.0
20/11 07:54 13.8 13 10.2 00:00 0.0
20/11 07:53 13.8 13 10.2 00:00 0.0
20/11 07:52 13.8 13.1 10.2 00:00 0.0
20/11 07:51 13.8 13.1 10.2 00:00 0.0
20/11 07:50 13.8 13.1 10.2 00:00 0.0
20/11 07:49 13.8 13.1 10.2 00:00 0.0
20/11 07:48 13.8 13.1 10.2 00:00 0.0
20/11 07:47 13.8 13.1 10.2 00:00 0.0
20/11 07:46 13.8 13.1 10.2 00:00 0.0
20/11 07:45 13.8 13.1 10.2 00:00 0.0
20/11 07:44 13.8 13.1 10.2 00:00 0.0
20/11 07:43 13.8 13.1 10.2 00:00 0.0
20/11 07:42 13.8 13.1 10.2 00:00 0.0
20/11 07:41 13.8 13.1 10.2 00:00 4.0
20/11 07:40 13.8 13.1 10.2 00:00 4.0
20/11 07:39 13.8 13.1 10.2 00:00 0.0
20/11 07:38 13.8 13.1 10.2 00:00 0.0
20/11 07:37 13.8 13.1 10.2 00:00 4.0
20/11 07:36 13.8 13.1 10.4 00:00 4.0
20/11 07:35 13.7 13 10.3 00:00 4.0
20/11 07:34 13.7 13 10.3 00:00 0.0
20/11 07:33 13.7 13 10.3 00:00 4.0
20/11 07:32 13.7 13.1 10.3 00:00 4.0
20/11 07:31 13.7 13.1 10.3 00:00 4.0
20/11 07:30 13.7 13 10.3 00:00 4.0
20/11 07:29 13.7 13.1 10.3 00:00 4.0
20/11 07:28 13.8 13.2 10.4 00:00 4.0
20/11 07:27 13.8 13.2 10.4 00:00 4.0
20/11 07:26 13.8 13.2 10.4 00:00 4.0
20/11 07:25 13.8 13.2 10.4 00:00 4.0
20/11 07:24 13.8 13.2 10.4 00:00 4.0
20/11 07:23 13.8 13.2 10.4 00:00 0.0
20/11 07:22 13.8 13.3 10.2 00:00 4.0
20/11 07:21 13.8 13.2 10.2 00:00 4.0
20/11 07:20 13.8 13.3 10.2 00:00 4.0
20/11 07:19 13.8 13.3 10.2 00:00 4.0
20/11 07:18 13.8 13.3 10.2 00:00 4.0
20/11 07:17 13.8 13.4 10.2 00:00 4.0
20/11 07:16 13.8 13.4 10.2 00:00 4.0
20/11 07:15 13.8 13.4 10.2 00:00 4.0
20/11 07:14 13.8 13.4 10.2 00:00 4.0
20/11 07:13 13.8 13.4 10.2 00:00 4.0
20/11 07:12 13.8 13.4 10.2 00:00 4.0
20/11 07:11 13.8 13.4 10.2 00:00 4.0
20/11 07:10 13.8 13.4 10.4 00:00 4.0
20/11 07:09 13.8 13.4 10.4 00:00 4.0
20/11 07:08 13.8 13.4 10.4 00:00 4.0
20/11 07:07 13.8 13.4 10.4 00:00 4.0
20/11 07:06 13.8 13.3 10.4 00:00 0.0
20/11 07:05 13.8 13.3 10.2 00:00 4.0
20/11 07:04 13.9 13.4 10.3 00:00 4.0
20/11 07:03 13.8 13.3 10.2 00:00 4.0
20/11 07:02 13.9 13.5 10.3 00:00 4.0
20/11 07:01 13.8 13.3 10.4 00:00 4.0
20/11 07:00 13.8 13.4 10.2 00:00 4.0
20/11 06:59 13.9 13.5 10.3 00:00 4.0
20/11 06:58 13.8 13.4 10.4 00:00 4.0
20/11 06:57 13.9 13.5 10.3 00:00 4.0
20/11 06:56 13.9 13.5 10.3 00:00 4.0
20/11 06:55 13.9 13.6 10.5 00:00 0.0
20/11 06:54 13.9 13.7 10.5 00:00 4.0
20/11 06:53 13.9 13.7 10.5 00:00 0.0
20/11 06:52 13.8 13.6 10.4 00:00 4.0
20/11 06:51 13.8 13.6 10.4 00:00 0.0
20/11 06:50 13.8 13.7 10.4 00:00 4.0
20/11 06:49 13.8 13.7 10.4 00:00 4.0
20/11 06:48 13.8 13.7 10.4 00:00 4.0
20/11 06:47 13.8 13.8 10.4 00:00 4.0
20/11 06:46 13.8 13.8 10.4 00:00 4.0
20/11 06:45 13.8 13.9 10.4 00:00 4.0
20/11 06:44 13.8 13.9 10.4 00:00 4.0
20/11 06:43 13.8 13.8 10.4 00:00 4.0
20/11 06:42 13.8 13.8 10.4 00:00 4.0
20/11 06:41 13.8 13.9 10.4 00:00 0.0
20/11 06:40 13.8 13.9 10.4 00:00 4.0
20/11 06:39 13.8 13.8 10.4 00:00 4.0
20/11 06:38 13.9 14 10.5 00:00 4.0
20/11 06:37 13.9 14.1 10.5 00:00 4.0
20/11 06:36 13.9 14.2 10.5 00:00 4.0
20/11 06:35 13.9 14.1 10.5 00:00 4.0
20/11 06:34 13.8 14 10.4 00:00 4.0
20/11 06:33 13.8 14 10.4 00:00 0.0
20/11 06:32 13.8 14 10.4 00:00 4.0
20/11 06:31 13.8 14.1 10.4 00:00 4.0
20/11 06:30 13.8 14 10.4 00:00 0.0
20/11 06:29 13.8 14 10.4 00:00 4.0
20/11 06:28 13.8 14 10.4 00:00 4.0
20/11 06:27 13.8 14 10.4 00:00 4.0
20/11 06:26 13.8 14.1 10.4 00:00 4.0
20/11 06:25 13.8 14 10.4 00:00 0.0
20/11 06:24 13.8 14 10.4 00:00 4.0
20/11 06:23 13.8 14 10.4 00:00 0.0
20/11 06:22 13.8 14.1 10.4 00:00 4.0
20/11 06:21 13.8 14.1 10.4 00:00 4.0
20/11 06:20 13.8 14.1 10.4 00:00 4.0
20/11 06:19 13.8 14.1 10.4 00:00 4.0
20/11 06:18 13.8 14.2 10.4 00:00 4.0
20/11 06:17 13.8 14.2 10.4 00:00 4.0
20/11 06:16 13.8 14.2 10.4 00:00 4.0
20/11 06:15 13.8 14.2 10.4 00:00 4.0
20/11 06:14 13.8 14.1 10.4 00:00 4.0
20/11 06:13 13.7 14 10.3 00:00 4.0
20/11 06:12 13.8 14.1 10.4 00:00 4.0
20/11 06:11 13.7 13.8 10.3 00:00 4.0
20/11 06:10 13.7 13.7 10.3 00:00 0.0
20/11 06:09 13.7 13.7 10.3 00:00 4.0
20/11 06:08 13.7 13.7 10.3 00:00 4.0
20/11 06:07 13.7 13.6 10.3 00:00 4.0
20/11 06:06 13.7 13.6 10.3 00:00 4.0
20/11 06:05 13.8 13.7 10.4 00:00 4.0
20/11 06:04 13.8 13.6 10.4 00:00 4.0
20/11 06:03 13.8 13.6 10.4 00:00 4.0
20/11 06:02 13.8 13.5 10.4 00:00 4.0
20/11 06:01 13.8 13.5 10.4 00:00 4.0
20/11 06:00 13.8 13.5 10.4 00:00 4.0
20/11 05:59 13.7 13.5 10.3 00:00 0.0
20/11 05:58 13.7 13.5 10.3 00:00 0.0
20/11 05:57 13.7 13.5 10.3 00:00 4.0
20/11 05:56 13.8 13.6 10.4 00:00 4.0
20/11 05:55 13.7 13.5 10.3 00:00 4.0
20/11 05:54 13.8 13.6 10.4 00:00 4.0
20/11 05:53 13.8 13.5 10.4 00:00 4.0
20/11 05:52 13.7 13.4 10.3 00:00 4.0
20/11 05:51 13.7 13.5 10.3 00:00 4.0
20/11 05:50 13.7 13.6 10.3 00:00 4.0
20/11 05:49 13.7 13.6 10.3 00:00 4.0
20/11 05:48 13.7 13.5 10.3 00:00 4.0
20/11 05:47 13.7 13.6 10.3 00:00 0.0
20/11 05:46 13.7 13.6 10.3 00:00 4.0
20/11 05:45 13.7 13.6 10.3 00:00 4.0
20/11 05:44 13.7 13.6 10.3 00:00 4.0
20/11 05:43 13.7 13.6 10.3 00:00 4.0
20/11 05:42 13.7 13.7 10.3 00:00 4.0
20/11 05:41 13.7 13.6 10.3 00:00 4.0
20/11 05:40 13.7 13.6 10.3 00:00 4.0
20/11 05:39 13.7 13.5 10.3 00:00 4.0
20/11 05:38 13.7 13.4 10.3 00:00 4.0
20/11 05:37 13.7 13.5 10.1 00:00 4.0
20/11 05:36 13.7 13.5 10.1 00:00 0.0
20/11 05:35 13.7 13.5 10.1 00:00 4.0
20/11 05:34 13.7 13.4 10.1 00:00 4.0
20/11 05:33 13.8 13.4 10.2 00:00 4.0
20/11 05:32 13.8 13.4 10.2 00:00 4.0
20/11 05:31 13.8 13.4 10.2 00:00 0.0
20/11 05:30 13.8 13.3 10.2 00:00 4.0
20/11 05:29 13.8 13.4 10.2 00:00 4.0
20/11 05:28 13.8 13.3 10.2 00:00 4.0
20/11 05:27 13.8 13.3 10.2 00:00 4.0
20/11 05:26 13.8 13.3 10.2 00:00 4.0
20/11 05:25 13.9 13.3 10.1 00:00 4.0
20/11 05:24 13.9 13.3 10.1 00:00 4.0
20/11 05:23 13.9 13.3 10.1 00:00 4.0
20/11 05:22 13.9 13.3 10.1 00:00 4.0
20/11 05:21 13.9 13.3 10.1 00:00 4.0
20/11 05:20 14.0 13.4 10.2 00:00 4.0
20/11 05:19 14.0 13.4 10.2 00:00 0.0
20/11 05:18 14.1 13.5 10.1 00:00 4.0
20/11 05:17 14.1 13.5 10.1 00:00 4.0
20/11 05:16 14.1 13.5 10.1 00:00 4.0
20/11 05:15 14.1 13.5 10.1 00:00 4.0



    Load Time 0.070591 seconds